Time,TemperatureF,DewpointF,PressureIn,WindDirection,WindDirectionDegrees,WindSpeedMPH,WindSpeedGustMPH,Humidity,HourlyPrecipIn,Conditions,Clouds,dailyrainin,SoftwareType,DateUTC
2013-02-13 00:02:00,38.0,25.0,29.90,NW,318,7.0,12.0,59,0.00,,,0.00,,2013-02-13 05:02:00,
2013-02-13 00:12:00,38.0,25.0,29.90,WNW,287,7.0,12.0,59,0.00,,,0.00,,2013-02-13 05:12:00,
2013-02-13 00:22:00,38.0,25.0,29.90,WNW,287,7.0,12.0,59,0.00,,,0.00,,2013-02-13 05:22:00,
2013-02-13 00:32:00,38.0,25.0,29.90,WNW,287,7.0,12.0,59,0.00,,,0.00,,2013-02-13 05:32:00,
2013-02-13 00:42:00,38.0,25.0,29.90,WNW,287,7.0,12.0,59,0.00,,,0.00,,2013-02-13 05:42:00,
2013-02-13 00:52:00,38.0,25.0,29.90,NW,308,6.0,10.0,59,0.00,,,0.00,,2013-02-13 05:52:00,
2013-02-13 01:02:00,38.0,25.0,29.90,NW,308,6.0,10.0,59,0.00,,,0.00,,2013-02-13 06:02:00,
2013-02-13 01:11:00,38.0,25.0,29.90,NW,308,6.0,10.0,59,0.00,,,0.00,,2013-02-13 06:11:00,
2013-02-13 01:22:00,38.0,25.0,29.90,NW,308,6.0,10.0,59,0.00,,,0.00,,2013-02-13 06:22:00,
2013-02-13 01:52:00,37.0,24.0,29.90,NW,315,7.0,12.0,59,0.00,,,0.00,,2013-02-13 06:52:00,
2013-02-13 02:02:00,37.0,24.0,29.90,NW,306,5.0,10.0,59,0.00,,,0.00,,2013-02-13 07:02:00,
2013-02-13 02:11:00,37.0,24.0,29.90,NW,316,6.0,12.0,59,0.00,,,0.00,,2013-02-13 07:11:00,
2013-02-13 02:22:00,37.0,24.0,29.90,NW,316,6.0,12.0,59,0.00,,,0.00,,2013-02-13 07:22:00,
2013-02-13 02:32:00,37.0,24.0,29.90,NW,314,8.0,15.0,59,0.00,,,0.00,,2013-02-13 07:32:00,
2013-02-13 02:42:00,37.0,24.0,29.90,NW,314,8.0,15.0,59,0.00,,,0.00,,2013-02-13 07:42:00,
2013-02-13 02:52:00,37.0,24.0,29.90,NW,314,9.0,13.0,59,0.00,,,0.00,,2013-02-13 07:52:00,
2013-02-13 03:01:00,37.0,24.0,29.90,NW,314,9.0,13.0,59,0.00,,,0.00,,2013-02-13 08:01:00,
2013-02-13 03:11:00,37.0,24.0,29.90,NW,314,9.0,13.0,59,0.00,,,0.00,,2013-02-13 08:11:00,
2013-02-13 03:21:00,37.0,24.0,29.90,NW,311,5.0,12.0,60,0.00,,,0.00,,2013-02-13 08:21:00,
2013-02-13 03:32:00,37.0,24.0,29.90,NW,321,8.0,12.0,59,0.00,,,0.00,,2013-02-13 08:32:00,
2013-02-13 03:43:00,37.0,24.0,29.90,NW,321,8.0,12.0,59,0.00,,,0.00,,2013-02-13 08:43:00,
2013-02-13 03:52:00,37.0,24.0,29.90,NW,321,8.0,12.0,59,0.00,,,0.00,,2013-02-13 08:52:00,
2013-02-13 04:02:00,37.0,24.0,29.90,NW,321,8.0,12.0,59,0.00,,,0.00,,2013-02-13 09:02:00,
2013-02-13 04:11:00,37.0,24.0,29.90,NW,321,8.0,12.0,59,0.00,,,0.00,,2013-02-13 09:11:00,
2013-02-13 19:52:00,40.0,27.0,29.71,East,94,5.0,7.0,60,0.00,,,0.00,,2013-02-14 00:52:00,
2013-02-13 20:01:00,40.0,28.0,29.71,East,93,2.0,8.0,61,0.00,,,0.00,,2013-02-14 01:01:00,
2013-02-13 20:11:00,40.0,28.0,29.71,East,93,2.0,8.0,61,0.00,,,0.00,,2013-02-14 01:11:00,
2013-02-13 20:21:00,39.0,28.0,29.71,NNE,25,5.0,8.0,65,0.00,,,0.00,,2013-02-14 01:21:00,
2013-02-13 20:32:00,39.0,30.0,29.71,NE,56,3.0,6.0,70,0.00,,,0.00,,2013-02-14 01:32:00,
2013-02-13 20:41:00,39.0,30.0,29.71,NE,56,3.0,6.0,70,0.00,,,0.00,,2013-02-14 01:41:00,
2013-02-13 20:52:00,38.0,30.0,29.69,NE,39,5.0,8.0,72,0.00,,,0.00,,2013-02-14 01:52:00,
2013-02-13 21:02:00,38.0,30.0,29.69,NE,39,5.0,8.0,72,0.00,,,0.00,,2013-02-14 02:02:00,
2013-02-13 21:11:00,38.0,31.0,29.69,NNE,29,3.0,6.0,75,0.00,,,0.00,,2013-02-14 02:11:00,
2013-02-13 21:21:00,38.0,31.0,29.69,NNE,29,3.0,6.0,75,0.00,,,0.00,,2013-02-14 02:21:00,
2013-02-13 21:32:00,38.0,31.0,29.69,NNE,29,3.0,6.0,75,0.00,,,0.00,,2013-02-14 02:32:00,
2013-02-13 21:42:00,38.0,31.0,29.69,NNE,29,3.0,6.0,75,0.00,,,0.00,,2013-02-14 02:42:00,
2013-02-13 21:52:00,38.0,31.0,29.69,NNE,29,3.0,6.0,75,0.00,,,0.00,,2013-02-14 02:52:00,
2013-02-13 22:02:00,37.0,30.0,29.69,ENE,67,2.0,7.0,77,0.00,,,0.00,,2013-02-14 03:02:00,
2013-02-13 22:12:00,37.0,30.0,29.69,ENE,67,2.0,7.0,77,0.00,,,0.00,,2013-02-14 03:12:00,
2013-02-13 22:22:00,37.0,28.0,29.69,NE,42,3.0,9.0,70,0.00,,,0.00,,2013-02-14 03:22:00,
2013-02-13 22:32:00,37.0,27.0,29.69,ENE,61,4.0,10.0,67,0.00,,,0.00,,2013-02-14 03:32:00,
2013-02-13 22:42:00,37.0,27.0,29.69,ENE,61,4.0,10.0,67,0.00,,,0.00,,2013-02-14 03:42:00,
2013-02-13 22:52:00,37.0,28.0,29.69,NNW,346,6.0,12.0,71,0.00,,,0.00,,2013-02-14 03:52:00,
2013-02-13 23:01:00,37.0,28.0,29.69,NNW,346,6.0,12.0,71,0.00,,,0.00,,2013-02-14 04:01:00,
2013-02-13 23:12:00,36.0,32.0,29.69,NNW,339,6.0,13.0,85,0.00,,,0.00,,2013-02-14 04:12:00,
2013-02-13 23:21:00,36.0,32.0,29.69,NNW,339,6.0,13.0,85,0.00,,,0.00,,2013-02-14 04:21:00,
2013-02-13 23:32:00,36.0,32.0,29.69,NNW,339,6.0,13.0,85,0.00,,,0.00,,2013-02-14 04:32:00,
2013-02-13 23:42:00,36.0,32.0,29.69,NNW,339,6.0,13.0,85,0.00,,,0.00,,2013-02-14 04:42:00,
2013-02-13 23:52:00,34.0,31.0,29.69,NNE,21,9.0,15.0,90,0.00,,,0.00,,2013-02-14 04:52:00,